Regional Weather Roundup
Issued by NWS Wilmington, NC

Home | Current Version | Previous Version | Text Only | Print | Product List | Glossary On
Versions: 1 2 3 4 5 6 7 8 9 10 11 12 13 14 15 16 17 18 19 20 21 22 23 24 25 26 27 28 29 30 31 32 33 34 35 36 37 38 39 40 41 42 43 44 45 46 47 48 49
000
ASUS42 KILM 280813
RWRILM
RWRILM
REGIONAL HOURLY WEATHER ROUNDUP
NATIONAL WEATHER SERVICE WILMINGTON NC
400 AM EDT FRI APR 28 2017

NOTE: "FAIR" INDICATES FEW OR NO CLOUDS BELOW 12,000 FEET WITH NO
SIGNIFICANT WEATHER AND/OR OBSTRUCTIONS TO VISIBILITY.

...............WFO WILMINGTON COUNTY WARNING AREA...............

......COASTAL NC AND SC COUNTIES......

CITY           SKY/WX    TMP DP  RH WIND       PRES   REMARKS
WILMINGTON     CLOUDY    75  72  90 S13G20    29.99R
N MYRTLE BEACH CLOUDY    73  72  96 SW10      29.99R
MYRTLE BEACH   CLOUDY    74  72  93 SW10      30.00R

......INLAND NC AND SC COUNTIES.......

CITY           SKY/WX    TMP DP  RH WIND       PRES   REMARKS
LUMBERTON      CLOUDY    73  71  93 S6        29.96R
ELIZABETHTOWN  CLOUDY    74  72  91 S8        29.97R
WHITEVILLE     CLOUDY    75  71  86 S8        29.97S
FLORENCE       CLOUDY    73  70  90 S8        29.96R
DARLINGTON     CLOUDY    71  67  87 S6        29.96R
KINGSTREE      FAIR      72  68  88 SE5       29.96S
HARTSVILLE     MOCLDY    68  63  83 SW3       29.95S
BENNETTSVILLE  MOCLDY    72  70  94 CALM      29.95S
CONWAY         FAIR      72  70  94 S7        29.98R
GEORGETOWN     CLOUDY    73  73 100 SW7       30.00R
MARION         MOCLDY    72  70  94 S8        29.97R

....................REST OF NORTH CAROLINA......................

.........EASTERN NC.........

CITY           SKY/WX    TMP DP  RH WIND       PRES   REMARKS
CAPE HATTERAS  MOCLDY    73  70  90 SW10      30.00R FOG
JACKSONVILLE   CLOUDY    73  71  93 S10       29.98S
MOREHEAD CITY  CLOUDY    73  73 100 S12       30.00R
KENANSVILLE    CLOUDY    72  70  94 CALM      29.97R
NEW BERN       CLOUDY    74  72  93 SW14      29.99R
ELIZABETH CITY CLOUDY    72  70  93 S9        29.95R

.........CENTRAL NC.........

CITY           SKY/WX    TMP DP  RH WIND       PRES   REMARKS
RALEIGH DURHAM LGT RAIN  72  65  78 SW8       29.95R
ROCKY MOUNT    CLOUDY    71  70  96 S5        29.95R
ROANOKE RAPIDS NOT AVBL
FAYETTEVILLE   CLOUDY    73  71  93 S7        29.96R
HOFFMAN        MOCLDY    70  67  89 S8        29.95R

.........WESTERN NC.........

CITY           SKY/WX    TMP DP  RH WIND       PRES   REMARKS
CHARLOTTE      CLOUDY    69  66  90 SW3       29.96R
GREENSBORO     MOCLDY    66  66 100 SW3       29.94R FOG
HICKORY        NOT AVBL
BOONE          NOT AVBL
ASHEVILLE      NOT AVBL

.....................REST OF SOUTH CAROLINA.....................

.........EASTERN SC.........

CITY           SKY/WX    TMP DP  RH WIND       PRES   REMARKS
CHARLESTON     MOCLDY    75  71  87 S13       29.97S
BEAUFORT MCAS  CLOUDY    74  74 100 SW3       29.97S
HILTON HEAD    MOCLDY    75  75 100 S6        29.98S FOG

.........CENTRAL SC.........

CITY           SKY/WX    TMP DP  RH WIND       PRES   REMARKS
COLUMBIA       PTCLDY    70  63  78 S3        29.94R
ORANGEBURG     CLEAR     69  66  90 CALM      29.96R
SUMTER SHAW    MOCLDY    72  66  80 S7        29.93S

.........WESTERN SC.........

CITY           SKY/WX    TMP DP  RH WIND       PRES   REMARKS
GREENVILLE     NOT AVBL
ROCK HILL      CLOUDY    68  67  96 CALM      29.96R FOG
ANDERSON       CLOUDY    67  65  93 CALM      29.95R
CLEMSON        NOT AVBL
GREENWOOD      CLOUDY    67  65  93 CALM      29.97R


...................COASTAL AND OFFSHORE REPORTS..................

................LOCAL PIERS AND NC RESERVE................


STATION/POSITION TIME  SKY/WX   TEMP    WIND        PRES    VSBY
                                AIR SEA DIR/SP/G
                 (UTC)          (F)     (DEG/KT/KT) (MB)    (MI)
JOHNY MRCER PIER 0736            72 72  200/ 13/ 14 1014.4R
NC RESRV MASNBRO 0645            73     240/  7     1015.0
OCEAN CREST PIER NOT AVBL
SPRINGMAID  PIER 0736                               1014.8R


................COASTAL AND OFFSHORE BUOYS................


STATION/POSITION TIME  SKY/WX   TEMP    WIND        PRES    VSBY
                                AIR SEA DIR/SP/G
                 (UTC)          (F)     (DEG/KT/KT) (MB)    (MI)
DIMNDSHOAL 41025 0750            77 77  190/ 19/ 21 1015.4F
WVE H/P(F/S)=  5/ 8 SWL H/P/D(F/S/D)=  3/130/ 8

CAPE LOOKOUT     0800            73     190/ 13/ 15 1015.2R
ONSLOW BAY 41036 NOT AVBL
ONSLOW BAY 41064 0708            73     190/ 14/ 19 1015.3S
ONSLOW BAY 41159 0743               72                N/A
WVE H/P(F/S)=  5/ 8 SWL H/P/D(F/S/D)=  2/110/13

MASNBO INL 41110 0759               71                N/A
WVE H/P(F/S)=  3/ 8

WILM HARBR 41108 0747               71                N/A
WVE H/P(F/S)=  4/ 6

27SE WRITB 41037 0708            74 72  180/ 12/ 16 1014.3F
FRYING PAN 41013 0800            75 72  200/ 12/ 14 1016.0
SUNST NRSH 41024 0708            72 70  200/  8/ 12 1015.1R
CAPRS NRSH 41029 0708            74 72  210/  8/ 12 1015.2R
EDISTO     41004 0750            75 74  200/ 10/ 12 1015.8R
WVE H/P(F/S)=  4/ 6 SWL H/P/D(F/S/D)=  3/150/ 6



..........OFFSHORE BUOYS BEYOND 100 NM OFFSHORE...........
.....IN A TRIANGLE---HAT TO BERMUDA TO BAHAMAS TO HAT.....


STATION/POSITION TIME  SKY/WX   TEMP    WIND        PRES    VSBY
                                AIR SEA DIR/SP/G
                 (UTC)          (F)     (DEG/KT/KT) (MB)    (MI)
150E HAT   41001 0800            73 71  200/ 12/ 16 1019.1
W BERMUDA  41048 0800            71 71  180/ 10/ 12 1021.4
ATLANTIC S 41049 0650            72 72  100/ 12/ 14 1022.4
WVE H/P(F/S)=  4/11 SWL H/P/D(F/S/D)=  3/ 40/11

E BAHAMAS  41046 0800            77 78  110/ 12/ 14 1018.4
NE BAHAMAS 41047 0800            75 76  120/ 12/ 16 1019.5
120E CANVRL41010 0800            78 78  150/ 16/ 19 1016.0

END



USA.gov is the U.S. government's official web portal to all federal, state and local government web resources and services.